Showing default

VEGA, 68430

Orbit data source: Space-Track

VEGA, 68430 is a Swedish payload satellite in SSO that was launched on Mon, 30 Mar 2026 UTC via an FALCON 9 launch vehicle from the Air Force Western Test Range (AFWTR). Payload-class satellites include a variety of spacecraft equipped with specific instruments for various scientific and technological missions. These include communications satellites like Starlink; space stations such as the ISS; scientific satellites like the Hubble; Earth observation satellites from companies like Planet Labs, Umbra, and HawkEye 360; GPS; miniature CubeSats for education and research; and military/defense satellites.

Loading next visibility...
Identifier
68430, 2026-067Q
Orbit
SSO
Country
Flag of SESE / SWED
Related business
None
Manufacturer
UNKSE
Mission
Operational Amateur Technology
Bus & Motor
CUBESAT 3U?, Unknown motor
Mass
~5 kg wet, ~5 kg dry
Launch date (UTC)
2026-03-30 (5 months ago)
Launch vehicle
FALCON 9
Launch site
Air Force Western Test Range (AFWTR)
Object type
Payload
Rocket body
Debris
Shape & HBR
Box, 0.2 m
Radar Cross Section
0.035 m², Medium (>0.1 m² and < 1m²)

Expand to show TLE details & history
Last TLE update: 21 hours ago

TLE from 21 hours ago
0 VEGA
1 68430U 26067Q   26254.83715628  .00005961  00000-0  27879-3 0  9998
2 68430  97.4576 212.2237 0002447  72.6975 287.4528 15.20136912 25107
Epoch: 2026-09-11T20:05Z
TLE epoch observation values (Epoch: 2026-09-11T20:05:30.302Z)
Latitude
0.00001°
Longitude
-80.00734°
Altitude
508.011 km
Speed
7.61 km/s
True Right ascension
14h 08m 53s
True Declination
0° 00' 00"
Sunlit
Object was in daylight at epoch
Visualization orbit readout
Latitude
Unknown
Longitude
Unknown
Altitude
Unknown
Speed
Unknown
Apparent Right ascension
Unknown
Apparent Declination
Unknown
Sunlit
N/A
Visualization observer readout
Local Sidereal Time
09:10:05
Azimuth
Unknown
Elevation
Unknown
Doppler factor
Unknown
Orbital elements
Apogee altitude
504.079 km
Perigee altitude
500.711 km
Semi-major axis
6,880.532 km
Eccentricity
0.00024
Inclination
97.4576°
RAAN
212.2237°
Arg. of periapsis
72.6975°
True anomaly
287.42605°
Mean anomaly
287.4528°
Eccentric anomaly
287.43942°
Mean motion
3.80286 °/min
Orbital period
94.67 mins
BSTAR
0.00027879
Loading maneuver chart data...
Computing Atmospheric mass density...
Loading historical data...
Loading historical data...
Loading historical data...
Loading historical data...
Loading historical data...
Loading historical data...
Loading historical data...

Documentation

Showing up to 5 results
|